[[{"header":{"parameterUnit":"m.s-1","parameterCategory":1,"la1":30.2991,"la2":30.254,"lo1":-89.0895,"lo2":-89.0444,"dy":0.0017,"dx":0.0017,"nx":28,"ny":28,"refTime":"2024-05-10T09:00:00:Z","depth":0,"parameterNumber":2,"parameterNumberName":"U-component_of_WINDS"},"data":[0,0,0,0,0,0,0,0,0,0,0,0,0,0,0,0,0,0,0,0,0,0,0,0,0,0,0,0,0,0,0,0,0,0,0,0,0,0,0,0,0,0,0,0,0,0,0,0,0,0,0,0,0,0,0,0,0,0,2.7199,2.72,0,2.7299,2.73,2.7301,2.7305,2.7303,2.7302,2.7301,2.7404,2.7407,2.7411,0,0,0,0,0,0,0,0,0,0,0,0,0,2.7013,2.7017,2.7199,2.72,2.7202,2.7299,2.73,2.7301,2.7305,2.7303,2.7302,2.73,2.7402,2.7407,2.7412,0,0,0,0,0,0,0,0,0,0,0,0,0,2.7101,2.7018,2.7199,2.7215,2.7217,2.7298,2.73,2.7302,2.7305,2.7303,2.7301,2.73,2.7401,2.7407,2.7412,2.7484,0,0,2.743,2.7432,0,0,0,0,0,0,0,0,2.7096,2.7108,2.7211,2.7214,2.7217,2.7287,2.7272,2.7363,2.7305,2.7272,2.7301,2.7299,2.7367,2.7375,2.7398,2.7489,2.7493,2.743,2.7434,2.7436,2.7438,0,0,0,0,0,0,0,2.709,2.7104,2.7239,2.7213,2.7216,2.7218,2.7228,2.7289,2.7328,2.7275,2.7275,2.7287,2.7368,2.7392,2.74,2.7495,2.743,2.7435,2.7439,2.7441,2.765,2.7652,0,0,0,0,0,0,2.7081,2.7099,2.7235,2.7242,2.7151,2.7222,2.7234,2.7267,2.7327,2.7335,2.7288,2.7287,2.7383,2.7393,2.7404,2.7492,2.7436,2.7442,2.7445,2.7648,2.7651,2.7653,0,0,0,0,0,0,2.7077,2.7093,2.7231,2.717,2.7188,2.7228,2.7264,2.727,2.7294,2.7338,2.7345,2.7306,2.7382,2.7396,2.7464,2.7495,2.7444,2.745,2.7646,2.7649,2.7652,2.7668,0,0,0,0,0,0,2.7072,2.7092,2.7119,2.7171,2.7191,2.729,2.7266,2.7273,2.7304,2.7303,2.7356,2.7363,2.7382,2.7455,2.747,2.7502,2.7454,2.7643,2.7647,2.7651,2.7665,2.7672,2.7677,0,0,0,0,0,2.7065,2.712,2.712,2.7137,2.7226,2.7291,2.7303,2.7323,2.7306,2.7334,2.7363,2.7362,2.749,2.7462,2.7479,2.7513,2.7641,2.7646,2.7651,2.7662,2.767,2.7677,0,0,0,0,0,0,2.707,2.7127,2.7128,2.7201,2.7241,2.7292,2.7328,2.7331,2.7377,2.7374,2.7397,2.7409,2.7477,2.7502,2.7471,2.7586,2.7564,2.7572,2.7567,2.7575,2.7581,2.7573,2.7459,0,0,0,0,0,2.708,2.7128,2.7175,2.7235,2.7255,2.7288,2.7317,2.7329,2.7372,2.7389,2.7422,2.7464,2.7514,2.7546,2.7594,2.7669,2.7681,2.7701,2.7707,2.7712,2.7718,2.776,2.777,2.7668,2.7668,2.7668,0,0,2.71,2.7137,2.7166,2.7237,2.7269,2.7319,2.7302,2.7355,2.7392,2.7397,2.7463,2.7489,2.7538,2.761,2.7643,2.7633,2.7749,2.7718,2.7721,2.7725,2.7766,2.7776,2.7784,2.7672,2.7671,2.7671,0,0,2.7162,2.7195,2.7249,2.7282,2.7332,2.7353,2.7366,2.7417,2.7434,2.7501,2.7506,2.7551,2.7636,2.767,2.7699,2.7775,2.7776,2.779,2.7821,2.7862,2.787,2.7877,2.7904,2.7913,2.7797,2.7797,2.7797,0,2.7181,2.7255,2.7276,2.7329,2.736,2.7367,2.7422,2.7453,2.7516,2.7538,2.7525,2.7633,2.7666,2.7746,2.7765,2.7788,2.7803,2.7784,2.7867,2.7874,2.7881,2.7907,2.7918,2.7798,2.7798,2.7798,2.7798,0,2.7276,2.7328,2.7365,2.7426,2.7462,2.7515,2.7544,2.7578,2.7587,2.761,2.7679,2.7719,2.7775,2.7795,2.7805,2.7878,2.787,2.7862,2.7839,2.7892,2.7917,2.7927,2.78,2.78,2.7799,2.7799,0,0,2.7343,2.7415,2.7428,2.7456,2.7512,2.7553,2.7607,2.7662,2.7691,2.7734,2.778,2.7853,2.7846,2.7879,2.7892,2.7928,2.7986,2.7916,2.7918,2.7927,2.8068,2.8073,2.8084,2.7987,2.7989,2.7991,2.8064,0,2.7411,2.7507,2.7528,2.7611,2.7659,2.7667,2.7715,2.7754,2.7778,2.7822,2.7848,2.7899,2.7887,2.7906,2.7942,2.7971,2.8014,2.7966,2.803,2.8032,2.8017,2.8097,2.8102,2.8169,2.8074,2.8076,2.8077,0,2.7503,2.7548,2.7636,2.7687,2.7707,2.775,2.7802,2.7845,2.789,2.7905,2.7941,2.7951,2.8009,2.7984,2.8064,2.803,2.8058,2.8076,2.808,2.8086,2.8057,2.8105,2.8191,2.8201,2.8092,2.8091,2.809,0,2.7542,2.7626,2.7689,2.7713,2.7773,2.7803,2.7829,2.7873,2.7905,2.7951,2.7972,2.8025,2.8053,2.8094,2.8118,2.8098,2.8195,2.8173,2.8209,2.8209,2.8229,2.8227,2.832,2.8248,2.8247,2.8247,2.8247,0,2.7615,2.7669,2.7708,2.7747,2.7807,2.7831,2.789,2.7917,2.7956,2.8,2.8011,2.8052,2.8082,2.8128,2.8147,2.821,2.8223,2.8237,2.8241,2.8235,2.8233,2.8253,2.8249,2.825,2.8249,2.8249,2.8248,0,2.7669,2.7697,2.7767,2.7819,2.7833,2.7875,2.7919,2.7958,2.7982,2.8038,2.8053,2.8091,2.8146,2.8174,2.8242,2.8255,2.8326,2.8328,2.831,2.8312,2.8346,2.8342,2.8455,2.8471,2.8388,2.8389,2.839,0,2.7713,2.7755,2.7811,2.7841,2.7868,2.7918,2.795,2.7976,2.801,2.8065,2.8097,2.8152,2.8198,2.8285,2.8319,2.8371,2.8374,2.841,2.8382,2.8375,2.8374,2.8371,2.8375,2.8414,2.8415,2.8416,2.8416,0,2.7789,2.7801,2.7848,2.79,2.7939,2.7982,2.8023,2.8048,2.808,2.8118,2.8174,2.8209,2.8279,2.8334,2.8389,2.8417,2.8422,2.8425,2.8436,2.843,2.8418,2.8425,2.8323,2.8422,2.8422,2.8421,2.8421,2.8421,2.7839,2.7876,2.7921,2.7974,2.8008,2.8047,2.8086,2.8115,2.8162,2.8221,2.8233,2.8292,2.8338,2.8412,2.8442,2.8489,2.8481,2.8498,2.8502,2.8505,2.8506,2.8412,2.8499,2.8499,2.8499,2.8499,2.8499,0,2.7914,2.7944,2.7992,2.805,2.8092,2.8093,2.814,2.8174,2.8226,2.8268,2.8313,2.8378,2.8431,2.8469,2.8524,2.8554,2.8558,2.8568,2.8565,2.8572,2.851,2.8495,2.8564,2.8564,2.8564,2.8564,2.8564,2.8564,2.7959,2.8022,2.804,2.812,2.815,2.8208,2.8234,2.827,2.8304,2.8376,2.842,2.8445,2.8486,2.8543,2.8593,2.8603,2.8622,2.8631,2.8641,2.8583,2.8576,2.8569,2.8555,2.8636,2.8636,2.8699,2.87,2.87]},{"header":{"parameterUnit":"m.s-1","parameterCategory":1,"la1":30.2991,"la2":30.254,"lo1":-89.0895,"lo2":-89.0444,"dy":0.0017,"dx":0.0017,"nx":28,"ny":28,"refTime":"2024-05-10T09:00:00:Z","depth":0,"parameterNumber":3,"parameterNumberName":"V-component_of_WINDS"},"data":[0,0,0,0,0,0,0,0,0,0,0,0,0,0,0,0,0,0,0,0,0,0,0,0,0,0,0,0,0,0,0,0,0,0,0,0,0,0,0,0,0,0,0,0,0,0,0,0,0,0,0,0,0,0,0,0,0,0,3.2413,3.2415,0,3.2587,3.2589,3.2591,3.26,3.2598,3.2596,3.2594,3.2772,3.2778,3.2785,0,0,0,0,0,0,0,0,0,0,0,0,0,3.209,3.2096,3.2413,3.2415,3.2418,3.2587,3.2589,3.2591,3.26,3.2598,3.2595,3.2593,3.277,3.2778,3.2785,0,0,0,0,0,0,0,0,0,0,0,0,0,3.2244,3.2098,3.2413,3.2442,3.2447,3.2586,3.2589,3.2592,3.2601,3.2598,3.2595,3.2592,3.2767,3.2777,3.2787,3.2908,0,0,3.2817,3.2821,0,0,0,0,0,0,0,0,3.2235,3.2255,3.2436,3.2441,3.2446,3.2569,3.254,3.2698,3.2602,3.2542,3.2594,3.2591,3.2707,3.2721,3.2761,3.2916,3.2924,3.2818,3.2824,3.2828,3.2831,0,0,0,0,0,0,0,3.2224,3.2248,3.2482,3.2439,3.2445,3.2447,3.2466,3.257,3.2639,3.2547,3.2548,3.2569,3.2709,3.2751,3.2765,3.2927,3.2817,3.2826,3.2832,3.2836,3.3192,3.3195,0,0,0,0,0,0,3.2208,3.2239,3.2476,3.2487,3.2331,3.2455,3.2476,3.2532,3.2638,3.2651,3.2571,3.2569,3.2736,3.2753,3.2771,3.2921,3.2828,3.2837,3.2843,3.3189,3.3193,3.3197,0,0,0,0,0,0,3.2201,3.2229,3.2469,3.2364,3.2394,3.2464,3.2527,3.2537,3.258,3.2656,3.2669,3.2602,3.2734,3.2757,3.2874,3.2928,3.2842,3.2851,3.3184,3.319,3.3195,3.3222,0,0,0,0,0,0,3.2192,3.2226,3.2273,3.2365,3.24,3.257,3.2531,3.2543,3.2597,3.2595,3.2688,3.2701,3.2733,3.2859,3.2884,3.294,3.2858,3.318,3.3187,3.3193,3.3217,3.3227,3.3237,0,0,0,0,0,3.218,3.2274,3.2275,3.2304,3.246,3.2573,3.2593,3.2629,3.2601,3.2649,3.2698,3.2698,3.2918,3.2871,3.2899,3.2959,3.3177,3.3185,3.3193,3.3212,3.3225,3.3237,0,0,0,0,0,0,3.2186,3.2286,3.2289,3.2415,3.2485,3.2574,3.2635,3.2641,3.2721,3.2716,3.2757,3.2778,3.2894,3.2938,3.2884,3.3082,3.3044,3.3058,3.3049,3.3063,3.3073,3.306,3.2867,0,0,0,0,0,3.2202,3.2286,3.2368,3.2471,3.2507,3.2565,3.2615,3.2637,3.2711,3.2741,3.2799,3.2871,3.2956,3.3012,3.3095,3.3223,3.3244,3.3277,3.3287,3.3295,3.3307,3.3379,3.3396,3.3222,3.3222,3.3222,0,0,3.2236,3.2301,3.2351,3.2474,3.2531,3.2617,3.259,3.2681,3.2745,3.2755,3.2869,3.2914,3.2997,3.3121,3.3178,3.3161,3.336,3.3305,3.3311,3.3319,3.3389,3.3405,3.342,3.3228,3.3227,3.3226,0,0,3.2342,3.2399,3.2492,3.255,3.2637,3.2675,3.2697,3.2785,3.2816,3.2931,3.294,3.3017,3.3163,3.3222,3.3272,3.3401,3.3404,3.3427,3.348,3.355,3.3563,3.3575,3.3623,3.3639,3.3438,3.3438,3.3438,0,3.2374,3.2503,3.2539,3.2631,3.2685,3.2698,3.2793,3.2847,3.2956,3.2993,3.2972,3.3157,3.3214,3.3352,3.3383,3.3422,3.345,3.3416,3.3558,3.3571,3.3583,3.3628,3.3646,3.344,3.344,3.344,3.344,0,3.2538,3.2627,3.2692,3.2798,3.2859,3.2952,3.3002,3.306,3.3076,3.3117,3.3234,3.3303,3.3401,3.3435,3.3451,3.3576,3.3563,3.355,3.3512,3.3601,3.3645,3.3662,3.3443,3.3443,3.3442,3.3441,0,0,3.2653,3.2778,3.2801,3.2849,3.2946,3.3016,3.311,3.3205,3.3254,3.3329,3.3409,3.3533,3.3522,3.3578,3.3601,3.3662,3.3762,3.3642,3.3645,3.3663,3.3904,3.3914,3.3933,3.3764,3.3767,3.377,3.3897,0,3.277,3.2937,3.2972,3.3117,3.32,3.3214,3.3295,3.3364,3.3404,3.3481,3.3526,3.3613,3.3591,3.3625,3.3687,3.3736,3.3811,3.3728,3.3839,3.3843,3.3819,3.3956,3.3966,3.4083,3.3914,3.3917,3.3919,0,3.2929,3.3009,3.3161,3.3248,3.3284,3.3357,3.3448,3.3521,3.3599,3.3624,3.3687,3.3704,3.3802,3.376,3.3896,3.3839,3.3887,3.3918,3.3923,3.3936,3.3887,3.3973,3.4121,3.4139,3.3946,3.3944,3.3942,0,3.2999,3.3144,3.3254,3.3295,3.3399,3.345,3.3495,3.357,3.3626,3.3705,3.3742,3.3831,3.388,3.395,3.3991,3.3956,3.4124,3.4085,3.4149,3.4148,3.4184,3.4182,3.4343,3.4213,3.4213,3.4213,3.4212,0,3.3127,3.322,3.3287,3.3355,3.346,3.35,3.3602,3.3648,3.3715,3.3792,3.3809,3.3881,3.393,3.401,3.4042,3.4151,3.4173,3.4196,3.4204,3.4196,3.4193,3.4228,3.4221,3.4217,3.4216,3.4216,3.4215,0,3.3222,3.3271,3.3392,3.3481,3.3505,3.3579,3.3654,3.3721,3.3762,3.386,3.3885,3.3949,3.4043,3.4091,3.4208,3.423,3.4353,3.4355,3.4327,3.433,3.4392,3.4386,3.4583,3.4611,3.4461,3.4463,3.4464,0,3.3301,3.3373,3.3469,3.3523,3.3569,3.3655,3.3711,3.3754,3.3812,3.3907,3.3963,3.4058,3.4136,3.4286,3.4344,3.4434,3.4439,3.4502,3.4453,3.4442,3.4441,3.4437,3.4445,3.4511,3.4512,3.4513,3.4514,0,3.3436,3.3457,3.3538,3.3629,3.3696,3.3769,3.3841,3.3884,3.3938,3.4003,3.4099,3.416,3.428,3.4375,3.447,3.4517,3.4525,3.4529,3.4549,3.4541,3.4522,3.4535,3.4352,3.4525,3.4524,3.4523,3.4522,3.4522,3.3526,3.3591,3.367,3.376,3.3819,3.3886,3.3953,3.4003,3.4084,3.4186,3.4206,3.4309,3.4386,3.4513,3.4564,3.4645,3.4631,3.466,3.4667,3.4674,3.4677,3.4509,3.4662,3.4662,3.4662,3.4661,3.4661,0,3.3663,3.3714,3.3797,3.3897,3.3969,3.397,3.405,3.411,3.42,3.4272,3.4349,3.446,3.4553,3.4617,3.4711,3.4764,3.477,3.4787,3.4784,3.4795,3.4683,3.4658,3.4781,3.4781,3.4781,3.4781,3.478,3.478,3.3742,3.3853,3.3883,3.4023,3.4074,3.4175,3.4221,3.4283,3.434,3.4464,3.4541,3.4583,3.4652,3.4751,3.4836,3.4852,3.4887,3.4904,3.4921,3.4815,3.4803,3.4791,3.4767,3.4911,3.4911,3.5026,3.5027,3.5028]}]]